Weather Roundup
Issued by NWS

Home | Current Version | Previous Version | Graphics & Text | Print | Product List | Glossary Off
Versions: 1 2 3 4 5 6 7 8 9 10 11 12 13 14 15 16 17 18 19 20 21 22 23 24 25 26 27 28 29 30 31 32 33 34 35 36 37 38 39 40 41 42 43 44 45 46 47 48 49 50

000
NZUS93 KARX 231910
HRRWXR

CURRENT HOURLY OBSERVATIONS ACROSS
MUCH OF THE UPPER MISSISSIPPI VALLEY
NATIONAL WEATHER SERVICE LA CROSSE WI
200 PM CDT THU OCT 23 2014


...SOUTHEAST MINNESOTA...


CITY           SKY/WX    TMP DP  RH WIND       PRES   REMARKS
ROCHESTER      CLOUDY    54  51  90 W5        30.02F
ROCHESTER/MAYO CLOUDY    54  51  89 CALM      30.02F
WINONA         CLOUDY    52  48  87 SW5       30.03S
AUSTIN         PTSUNNY   59  52  77 CALM      30.01F
ALBERT LEA     SUNNY     64  52  63 CALM      29.99F
DODGE CENTER   CLOUDY    55  54  94 CALM      30.01F
PRESTON        CLOUDY    49  48  95 SW5       30.03S FOG
OWATONNA       SUNNY     63  52  67 SW3       29.99F
FARIBAULT      SUNNY     63  54  72 CALM      29.99F
$$

...ELSEWHERE IN MINNESOTA...


CITY           SKY/WX    TMP DP  RH WIND       PRES   REMARKS
MINNEAPOLIS    SUNNY     64  51  62 S5        29.97F
INTNL FALLS    SUNNY     66  45  46 SW12G20   29.84F
DULUTH         CLOUDY    53  48  83 W9        29.95S
RED WING       CLOUDY    55  52  88 CALM      30.00F
REDWOOD FALLS  SUNNY     69  42  37 W7        29.97F
MANKATO        SUNNY     66  45  45 W7        29.98F
WORTHINGTON    SUNNY     66  41  39 W8        30.01F
FAIRMONT       SUNNY     70  19  14 W14       29.99F
$$

...SOUTHWEST WISCONSIN...


CITY           SKY/WX    TMP DP  RH WIND       PRES   REMARKS
LA CROSSE      CLOUDY    50  47  89 S8        30.03F
PRAIRIE DU CHI CLOUDY    48  46  90 S5        30.05S
BOSCOBEL       CLOUDY    50  46  86 S5        30.05F
LONE ROCK      LGT RAIN  51  46  83 CALM      30.06F
PLATTEVILLE    CLOUDY    47  46  95 S7        30.07S
FORT MC COY    CLOUDY    47  45  93 CALM      30.05F
CAMP DOUGLAS   DRIZZLE   46  46 100 S5        30.04F FOG
VIROQUA        CLOUDY    46  46 100 S3        30.03F
WIS DELLS      RAIN      46  44  93 S3        30.05F
$$

...ELSEWHERE IN WISCONSIN...


CITY           SKY/WX    TMP DP  RH WIND       PRES   REMARKS
MILWAUKEE      CLOUDY    57  42  57 S10       30.09F
MADISON        LGT RAIN  52  45  77 S6        30.06F
GREEN BAY      LGT RAIN  53  43  68 SW7       30.08F
EAU CLAIRE     CLOUDY    51  49  92 S6        30.01S
BLACK RVR FLS  CLOUDY    49  49 100 SW5       30.03S FOG
MEDFORD        CLOUDY    45  44  97 S3        30.02S FOG
WAUSAU         LGT RAIN  45  43  93 S6        30.03S
WIS RAPIDS     LGT RAIN  47  45  93 SW7       30.05F
MARSHFIELD     CLOUDY    47  45  93 S8        30.03F FOG
RICE LAKE      CLOUDY    51  49  93 S5        30.01F FOG
$$

...NORTHEAST IOWA...


CITY           SKY/WX    TMP DP  RH WIND       PRES   REMARKS
DECORAH        CLOUDY    50  48  93 S5        30.02F
MASON CITY     MOSUNNY   64  54  69 NW7       30.02F
CHARLES CITY   CLOUDY    54  52  94 S3        30.03F FOG
OELWEIN        CLOUDY    50  50 100 S9        30.05S FOG
$$

...ELSEWHERE IN IOWA...


CITY           SKY/WX    TMP DP  RH WIND       PRES   REMARKS
DES MOINES     PTSUNNY   68  58  70 CALM      30.02F
IOWA CITY      CLOUDY    57  51  80 S3        30.06F
FORT DODGE     SUNNY     66  52  59 W5        30.03F
$$

...NORTHERN ILLINOIS...


CITY           SKY/WX    TMP DP  RH WIND       PRES   REMARKS
CHICAGO-OHARE  PTSUNNY   59  41  51 S12       30.11F
CHICAGO-MIDWAY PTSUNNY   62  41  46 S9        30.11F
MOLINE         CLOUDY    60  46  59 S8        30.05F
ROCKFORD       CLOUDY    60  43  53 S15       30.11F
PEORIA         CLOUDY    59  44  57 S12       30.12F
$$

NOTE: "FAIR" INDICATES FEW OR NO CLOUDS BELOW 12,000 FEET WITH NO
SIGNIFICANT WEATHER AND/OR OBSTRUCTIONS TO VISIBILITY. WIND
SPEEDS ARE IN MILES-PER-HOUR.



USA.gov is the U.S. government's official web portal to all federal, state and local government web resources and services.